Location: Breitenfeld
(46.8500°N, 15.6333°E)
Time: 16:49:24
(UTC+00:00)

COSMOS 2455 - Pass Details

Date: 09 April 2020
Orbit: 899 x 910 km, 67.1° (Epoch: 04 June)

Event Time Altitude Azimuth Distance (km) Brightness Sun altitude
Rises 20:02:36 0° 319° (NW) 3,546 7.4 -22.7°
Reaches altitude 10° 20:05:23 10° 310° (NW) 2,601 6.4 -23.0°
Maximum altitude 20:10:33 31° 251° (WSW) 1,552 4.3 -23.7°
Enters shadow 20:13:54 18° 203° (SSW) 2,056 4.5 -24.1°
